"Timestamp","TZ","WindDir_Mean (deg)","WindSpd_Mean (km/h)","WindSpd_Min (km/h)","WindSpd_Max (km/h)","Temp_Mean (deg)","RH_Mean (%)","MSLP_Mean (hPa)","Rain_Acc (mm)","Rain_Intensity (mm/h)","Hail_Acc (hits/cm2)","Hail_Intensity (hits/cm2hr)","Solar_Mean (W/m2)"
2022/07/30 00:00:00.001,n,135,3.6,1.44,7.56,12,64.699996,1023.52,0,0,0,0,0.028763
2022/07/30 00:01:00.000,n,176,2.52,1.8,2.88,12,64.800004,1023.52,0,0,0,0,0.028763
2022/07/30 00:02:00.000,n,229,2.16,0.72,4.32,12,64.9,1023.52,0,0,0,0,0.030479
2022/07/30 00:03:00.000,n,301,1.44,1.08,1.8,12,64.9,1023.52,0,0,0,0,0.02964
2022/07/30 00:04:00.000,n,273,1.8,1.8,2.16,11.9,64.9,1023.52,0,0,0,0,0.025253
2022/07/30 00:05:00.004,n,311,0.72,0.36,1.08,11.9,64.9,1023.52,0,0,0,0,0.02964
2022/07/30 00:06:00.001,n,327,1.08,0.36,3.96,11.9,65.4,1023.52,0,0,0,0,0.031395
2022/07/30 00:07:00.000,n,65,1.8,0.72,5.04,11.9,65.300004,1023.52,0,0,0,0,0.026131
2022/07/30 00:08:00.012,n,121,1.08,1.08,1.44,11.9,65.4,1023.52,0,0,0,0,0.027885
2022/07/30 00:09:00.009,n,288,1.44,0.36,3.6,11.9,65.6,1023.52,0,0,0,0,0.026131
2022/07/30 00:10:00.000,n,270,2.16,2.16,2.52,11.9,65.4,1023.52,0,0,0,0,0.025253
2022/07/30 00:11:00.000,n,160,5.04,2.88,8.64,11.9,65.4,1023.52,0,0,0,0,0.026131
2022/07/30 00:12:00.002,n,156,1.8,0.72,3.24,11.8,65.6,1023.62,0,0,0,0,0.025253
2022/07/30 00:13:00.000,n,165,2.52,1.8,2.88,11.8,65.5,1023.62,0,0,0,0,0.022697
2022/07/30 00:14:00.000,n,185,1.8,0.36,3.24,11.8,65.4,1023.62,0,0,0,0,0.020905
2022/07/30 00:15:00.009,n,282,4.68,3.96,5.4,11.8,65.4,1023.62,0,0,0,0,0.023537
2022/07/30 00:16:00.006,n,182,1.8,0.36,3.6,11.8,65.4,1023.62,0,0,0,0,0.020905
2022/07/30 00:17:00.003,n,285,4.32,3.6,4.68,11.7,65.5,1023.62,0,0,0,0,0.022697
2022/07/30 00:18:00.001,n,248,5.76,2.88,6.48,11.7,65.5,1023.62,0,0,0,0,0.024414
2022/07/30 00:19:00.000,n,126,3.6,2.16,6.12,11.7,65.4,1023.62,0,0,0,0,0.018311
2022/07/30 00:20:00.000,n,239,4.68,2.52,6.84,11.8,65.4,1023.62,0,0,0,0,0.020065
2022/07/30 00:21:00.000,n,208,4.68,3.6,6.48,11.8,65.199996,1023.62,0,0,0,0,0.024414
2022/07/30 00:22:00.006,n,291,2.88,2.52,3.24,11.8,65.5,1023.62,0,0,0,0,0.024414
2022/07/30 00:23:00.003,n,243,2.88,0.36,4.32,11.9,65.300004,1023.62,0,0,0,0,0.022697
2022/07/30 00:24:00.000,n,270,5.4,4.68,6.48,11.9,65,1023.62,0,0,0,0,0.024376
2022/07/30 00:25:00.010,n,196,1.8,0.72,3.24,11.9,64.800004,1023.62,0,0,0,0,0.027008
2022/07/30 00:26:00.008,n,314,0.72,0,5.04,11.9,64.9,1023.62,0,0,0,0,0.033112
2022/07/30 00:27:00.004,n,297,1.8,0.36,4.68,11.9,64.800004,1023.62,0,0,0,0,0.027885
2022/07/30 00:28:00.002,n,122,2.16,1.8,2.88,11.9,64.800004,1023.62,0,0,0,0,0.027885
2022/07/30 00:29:00.000,n,297,1.8,1.44,1.8,11.9,64.800004,1023.62,0,0,0,0,0.025253
2022/07/30 00:30:00.000,n,180,5.4,3.24,10.08,11.9,64.699996,1023.62,0,0,0,0,0.024376
2022/07/30 00:31:00.000,n,350,1.44,0.72,2.52,11.9,64.800004,1023.72,0,0,0,0,0.026169
2022/07/30 00:32:00.008,n,128,2.52,2.52,2.52,12,64.6,1023.72,0,0,0,0,0.026169
2022/07/30 00:33:00.006,n,243,2.52,1.08,3.24,12,64.300004,1023.72,0,0,0,0,0.020905
2022/07/30 00:34:00.003,n,225,1.8,0.72,2.88,12,64.6,1023.72,0,0,0,0,0.024376
2022/07/30 00:35:00.000,n,162,3.24,2.52,4.32,12,64.699996,1023.72,0,0,0,0,0.022659
2022/07/30 00:36:00.013,n,292,2.16,1.08,3.6,12,64.1,1023.72,0,0,0,0,0.025253
2022/07/30 00:37:00.000,n,282,1.8,1.44,2.16,12.1,63.8,1023.72,0,0,0,0,0.022659
2022/07/30 00:38:00.000,n,249,3.24,0.72,4.68,12.1,63.7,1023.72,0,0,0,0,0.025253
2022/07/30 00:39:00.005,n,128,3.24,1.08,4.32,12.1,63.6,1023.72,0,0,0,0,0.023537
2022/07/30 00:40:00.002,n,167,3.24,2.16,5.04,12.1,63.6,1023.72,0,0,0,0,0.020905
2022/07/30 00:41:00.000,n,269,5.4,1.44,6.48,12.1,63.5,1023.72,0,0,0,0,0.023537
2022/07/30 00:42:00.000,n,269,4.68,3.96,5.04,12.1,63.4,1023.72,0,0,0,0,0.023537
2022/07/30 00:43:00.009,n,246,3.6,1.8,4.32,12.1,63.5,1023.72,0,0,0,0,0.018311
2022/07/30 00:44:00.007,n,231,3.24,1.44,4.32,12.1,63.3,1023.82,0,0,0,0,0.024376
2022/07/30 00:45:00.003,n,147,2.88,1.44,4.32,12.1,63.2,1023.82,0,0,0,0,0.021782
2022/07/30 00:46:00.000,n,105,3.24,2.88,3.6,12.1,63.2,1023.82,0,0,0,0,0.025253
2022/07/30 00:47:00.000,n,59,1.44,0.36,3.24,12.1,64,1023.82,0,0,0,0,0.027008
2022/07/30 00:48:00.000,n,151,2.16,1.08,2.88,12.1,63.4,1023.72,0,0,0,0,0.024376
2022/07/30 00:49:00.000,n,272,4.68,3.96,5.4,12.2,63.2,1023.72,0,0,0,0,0.024376
2022/07/30 00:50:00.005,n,231,3.24,1.44,5.04,12.1,63.2,1023.72,0,0,0,0,0.024376
2022/07/30 00:51:00.002,n,127,3.6,1.8,4.68,12.2,63,1023.72,0,0,0,0,0.022659
2022/07/30 00:52:00.000,n,138,2.16,1.8,3.6,12.1,63,1023.72,0,0,0,0,0.024376
2022/07/30 00:53:00.012,n,107,3.6,1.44,4.32,12.1,63,1023.72,0,0,0,0,0.027008
2022/07/30 00:54:00.012,n,337,1.44,0.36,4.68,12.1,63.3,1023.72,0,0,0,0,0.024376
2022/07/30 00:55:00.000,n,131,1.8,1.08,2.16,12.1,63.3,1023.82,0,0,0,0,0.022659
2022/07/30 00:56:00.000,n,148,2.88,0.72,6.12,12.1,63.6,1023.82,0,0,0,0,0.023537
2022/07/30 00:57:00.000,n,281,2.52,1.8,3.6,12.1,63.5,1023.82,0,0,0,0,0.021782
2022/07/30 00:58:00.000,n,244,2.16,1.8,2.52,12.1,63.3,1023.82,0,0,0,0,0.023537
2022/07/30 00:59:00.009,n,23,2.16,0.72,3.96,12.1,64,1023.82,0,0,0,0,0.024376
2022/07/30 01:00:00.005,n,156,1.44,0.36,3.96,12.1,63.7,1023.82,0,0,0,0,0.020905
2022/07/30 01:01:00.003,n,169,1.8,1.44,2.16,12.1,63.5,1023.82,0,0,0,0,0.026169
2022/07/30 01:02:00.000,n,10,2.52,0.72,5.76,12.1,63.5,1023.82,0,0,0,0,0.023537
2022/07/30 01:03:00.013,n,157,3.24,0.72,5.4,12.1,63.9,1023.82,0,0,0,0,0.026169
2022/07/30 01:04:00.000,n,225,1.08,0.36,3.96,12.1,63.8,1023.82,0,0,0,0,0.022659
2022/07/30 01:05:00.000,n,178,3.96,2.52,6.84,12.1,63.5,1023.82,0,0,0,0,0.020905
2022/07/30 01:06:00.004,n,140,1.44,0.36,5.4,12.1,63.5,1023.82,0,0,0,0,0.029602
2022/07/30 01:07:00.001,n,277,4.32,3.96,4.68,12.1,63.4,1023.82,0,0,0,0,0.025253
2022/07/30 01:08:00.000,n,242,2.52,1.44,3.24,12.1,63.6,1023.72,0,0,0,0,0.027008
2022/07/30 01:09:00.000,n,290,1.8,1.44,2.16,12.1,63.8,1023.72,0,0,0,0,0.024376
2022/07/30 01:10:00.008,n,284,2.88,0.36,6.48,12.1,64,1023.72,0,0,0,0,0.024376
2022/07/30 01:11:00.005,n,297,1.08,0.36,1.44,12.1,63.6,1023.82,0,0,0,0,0.023537
2022/07/30 01:12:00.002,n,168,2.16,0.36,4.32,12.1,63.6,1023.82,0,0,0,0,0.026169
2022/07/30 01:13:00.000,n,128,3.24,2.16,3.96,12.1,63.7,1023.82,0,0,0,0,0.025253
2022/07/30 01:14:00.000,n,6,0.72,0,4.32,12,64.1,1023.92,0,0,0,0,0.023537
2022/07/30 01:15:00.000,n,304,2.16,1.08,3.24,12,63.9,1023.92,0,0,0,0,0.024376
2022/07/30 01:16:00.006,n,135,1.08,0.72,1.8,12,64,1023.92,0,0,0,0,0.024376
2022/07/30 01:17:00.003,n,286,5.4,4.68,6.12,12,63.6,1023.92,0,0,0,0,0.025253
2022/07/30 01:18:00.000,n,279,4.32,3.6,4.68,12,63.6,1023.92,0,0,0,0,0.027885
2022/07/30 01:19:00.000,n,256,5.04,1.8,6.84,12,63.7,1023.92,0,0,0,0,0.024376
2022/07/30 01:20:00.013,n,301,1.8,1.44,2.16,12,63.8,1023.92,0,0,0,0,0.024376
2022/07/30 01:21:00.011,n,128,2.52,1.08,3.6,12,63.8,1023.92,0,0,0,0,0.025253
2022/07/30 01:22:00.000,n,281,5.04,4.68,6.48,12,63.7,1023.92,0,0,0,0,0.025253
2022/07/30 01:23:00.000,n,258,3.6,2.16,4.32,11.9,63.7,1023.92,0,0,0,0,0.028725
2022/07/30 01:24:00.001,n,296,1.8,1.08,2.16,11.9,63.8,1023.92,0,0,0,0,0.027885
2022/07/30 01:25:00.000,n,271,5.4,3.24,7.56,11.9,63.9,1023.92,0,0,0,0,0.024376
2022/07/30 01:26:00.000,n,270,5.4,4.68,6.12,11.9,63.8,1023.92,0,0,0,0,0.024376
2022/07/30 01:27:00.008,n,241,1.8,1.08,2.88,11.9,63.6,1023.92,0,0,0,0,0.026169
2022/07/30 01:28:00.005,n,250,5.76,1.8,6.48,11.9,63.6,1023.92,0,0,0,0,0.027008
2022/07/30 01:29:00.002,n,335,2.16,1.44,3.6,11.9,63.4,1023.92,0,0,0,0,0.027008
2022/07/30 01:30:00.015,n,177,3.6,1.44,5.76,11.9,63.5,1023.92,0,0,0,0,0.030518
2022/07/30 01:31:00.000,n,286,3.6,3.24,3.96,11.9,63.5,1023.92,0,0,0,0,0.025253
2022/07/30 01:32:00.000,n,285,0.72,0.72,0.72,11.9,63.5,1023.92,0,0,0,0,0.028725
2022/07/30 01:33:00.000,n,292,2.16,1.8,2.16,11.9,63.6,1023.92,0,0,0,0,0.027008
2022/07/30 01:34:00.004,n,326,2.16,0.36,2.88,11.9,63.6,1023.92,0,0,0,0,0.027885
2022/07/30 01:35:00.001,n,155,1.08,0.36,3.6,11.8,63.6,1023.92,0,0,0,0,0.026169
2022/07/30 01:36:00.000,n,257,2.52,1.08,3.96,11.8,63.7,1023.92,0,0,0,0,0.027885
2022/07/30 01:37:00.011,n,206,2.52,2.16,2.88,11.8,63.8,1023.92,0,0,0,0,0.025253
2022/07/30 01:38:00.009,n,165,4.68,2.16,6.84,11.8,63.7,1023.92,0,0,0,0,0.027008
2022/07/30 01:39:00.006,n,155,1.44,0.72,4.32,11.8,63.4,1023.92,0,0,0,0,0.027008
2022/07/30 01:40:00.000,n,109,3.24,1.44,4.68,11.8,63.4,1023.92,0,0,0,0,0.030518
2022/07/30 01:41:00.004,n,304,2.52,2.16,2.52,11.8,63.5,1024.02,0,0,0,0,0.026169
2022/07/30 01:42:00.000,n,299,2.16,1.8,2.52,11.8,63.6,1024.02,0,0,0,0,0.024376
2022/07/30 01:43:00.000,n,313,1.8,0.72,3.24,11.7,63.4,1023.92,0,0,0,0,0.025253
2022/07/30 01:44:00.008,n,321,2.16,0.72,3.96,11.7,63.4,1024.02,0,0,0,0,0.027885
2022/07/30 01:45:00.005,n,285,1.44,0.72,3.24,11.7,63.4,1024.02,0,0,0,0,0.025253
2022/07/30 01:46:00.002,n,310,1.8,1.44,2.52,11.7,63.3,1024.02,0,0,0,0,0.026169
2022/07/30 01:47:00.000,n,277,2.52,2.16,2.88,11.7,63.3,1024.02,0,0,0,0,0.026169
2022/07/30 01:48:00.013,n,168,4.68,1.44,6.12,11.7,63.3,1024.02,0,0,0,0,0.023537
2022/07/30 01:49:00.000,n,213,2.16,1.08,3.24,11.7,63.4,1024.02,0,0,0,0,0.025253
2022/07/30 01:50:00.000,n,288,1.44,0.72,1.8,11.7,63.5,1024.02,0,0,0,0,0.024376
2022/07/30 01:51:00.004,n,158,2.52,1.8,3.24,11.7,63.2,1024.02,0,0,0,0,0.020905
2022/07/30 01:52:00.001,n,351,1.8,0.72,6.12,11.7,63.3,1023.92,0,0,0,0,0.021782
2022/07/30 01:53:00.000,n,158,5.4,3.24,6.12,11.7,63.4,1024.02,0,0,0,0,0.025253
2022/07/30 01:54:00.000,n,287,2.16,1.44,2.52,11.7,63.2,1023.92,0,0,0,0,0.023537
2022/07/30 01:55:00.009,n,180,4.32,2.52,6.48,11.7,63.4,1023.92,0,0,0,0,0.020027
2022/07/30 01:56:00.005,n,136,3.24,2.52,4.32,11.7,63.3,1023.92,0,0,0,0,0.020027
2022/07/30 01:57:00.002,n,141,1.44,0.72,2.88,11.7,63.9,1023.92,0,0,0,0,0.020027
2022/07/30 01:58:00.000,n,294,2.16,1.44,2.52,11.7,63.3,1023.92,0,0,0,0,0.018311
2022/07/30 01:59:00.000,n,312,1.08,1.08,1.44,11.7,63.3,1023.92,0,0,0,0,0.017433
2022/07/30 02:00:00.000,n,269,3.24,2.52,3.96,11.6,63.4,1023.92,0,0,0,0,0.021782
2022/07/30 02:01:00.000,n,169,7.92,6.84,9.36,11.6,63.2,1023.92,0,0,0,0,0.021782
2022/07/30 02:02:00.005,n,164,5.4,1.8,5.76,11.7,63.1,1023.92,0,0,0,0,0.020027
2022/07/30 02:03:00.002,n,148,5.4,2.88,6.12,11.7,63.4,1023.92,0,0,0,0,0.016556
2022/07/30 02:04:00.000,n,166,5.4,3.24,6.48,11.7,63.2,1023.82,0,0,0,0,0.021782
2022/07/30 02:05:00.012,n,179,4.68,2.16,6.12,11.7,63.3,1023.82,0,0,0,0,0.020027
2022/07/30 02:06:00.009,n,163,7.2,3.96,9.72,11.7,63.1,1023.82,0,0,0,0,0.017433
2022/07/30 02:07:00.000,n,23,1.08,0.36,3.96,11.7,63.2,1023.82,0,0,0,0,0.016556
2022/07/30 02:08:00.000,n,294,1.8,1.8,2.52,11.7,63.3,1023.82,0,0,0,0,0.016556
2022/07/30 02:09:00.002,n,320,2.52,2.16,3.6,11.7,63.5,1023.82,0,0,0,0,0.019188
2022/07/30 02:10:00.001,n,173,5.76,2.52,7.2,11.7,63.7,1023.82,0,0,0,0,0.018311
2022/07/30 02:11:00.000,n,63,2.52,0.36,4.68,11.6,63.8,1023.82,0,0,0,0,0.014801
2022/07/30 02:12:00.010,n,174,2.88,2.16,3.24,11.6,64,1023.82,0,0,0,0,0.016556
2022/07/30 02:13:00.007,n,186,2.16,0.36,3.96,11.6,64,1023.82,0,0,0,0,0.016556
2022/07/30 02:14:00.004,n,174,3.6,1.44,5.76,11.6,64,1023.82,0,0,0,0,0.016556
2022/07/30 02:15:00.002,n,96,2.16,0.36,3.96,11.6,64.1,1023.82,0,0,0,0,0.027008
2022/07/30 02:16:00.000,n,207,1.44,0.36,3.96,11.5,64.1,1023.92,0,0,0,0,0.027847
2022/07/30 02:17:00.000,n,153,2.52,1.8,2.88,11.5,64.199996,1023.92,0,0,0,0,0.029602
2022/07/30 02:18:00.000,n,166,4.68,1.44,6.12,11.5,64.5,1023.92,0,0,0,0,0.028763
2022/07/30 02:19:00.002,n,151,4.68,2.16,6.48,11.5,64.6,1023.92,0,0,0,0,0.027008
2022/07/30 02:20:00.000,n,358,1.44,1.08,1.44,11.5,65,1023.92,0,0,0,0,0.028763
2022/07/30 02:21:00.000,n,107,2.52,1.8,3.24,11.5,64.800004,1023.82,0,0,0,0,0.027847
2022/07/30 02:22:00.009,n,151,2.52,2.16,3.24,11.5,64.6,1023.82,0,0,0,0,0.027008
2022/07/30 02:23:00.007,n,293,1.44,0.72,2.16,11.5,64.199996,1023.82,0,0,0,0,0.027847
2022/07/30 02:24:00.003,n,217,2.52,1.44,3.6,11.4,63.8,1023.82,0,0,0,0,0.026131
2022/07/30 02:25:00.000,n,128,3.24,1.8,3.6,11.4,64.1,1023.82,0,0,0,0,0.029602
2022/07/30 02:26:00.000,n,262,1.8,1.44,2.52,11.3,64.199996,1023.82,0,0,0,0,0.027847
2022/07/30 02:27:00.000,n,239,2.52,0.72,4.32,11.3,64.300004,1023.82,0,0,0,0,0.025253
2022/07/30 02:28:00.000,n,317,2.16,1.8,2.52,11.3,64.199996,1023.92,0,0,0,0,0.027008
2022/07/30 02:29:00.005,n,156,2.52,1.8,2.88,11.2,64.300004,1023.92,0,0,0,0,0.023499
2022/07/30 02:30:00.002,n,229,2.52,0.72,3.6,11.2,64.300004,1023.92,0,0,0,0,0.026131
2022/07/30 02:31:00.000,n,165,3.96,1.08,5.76,11.2,64.300004,1023.92,0,0,0,0,0.025253
2022/07/30 02:32:00.012,n,303,1.8,1.44,2.16,11.2,64.300004,1023.92,0,0,0,0,0.025253
2022/07/30 02:33:00.009,n,194,3.24,0.72,6.12,11.2,64.199996,1023.92,0,0,0,0,0.024414
2022/07/30 02:34:00.000,n,291,2.16,1.8,2.52,11.1,64.199996,1023.82,0,0,0,0,0.026131
2022/07/30 02:35:00.003,n,163,2.88,2.16,3.6,11.1,64.1,1023.82,0,0,0,0,0.024414
2022/07/30 02:36:00.000,n,276,4.32,3.6,5.04,11.1,64.1,1023.82,0,0,0,0,0.026131
2022/07/30 02:37:00.000,n,235,3.6,2.52,4.68,11.1,64.1,1023.82,0,0,0,0,0.027847
2022/07/30 02:38:00.000,n,234,4.32,1.8,5.04,11.1,64,1023.82,0,0,0,0,0.025253
2022/07/30 02:39:00.007,n,256,3.24,1.8,3.96,11.1,64.1,1023.82,0,0,0,0,0.024414
2022/07/30 02:40:00.004,n,330,7.2,2.88,8.64,11.1,65,1023.72,0,0,0,0,0.023499
2022/07/30 02:41:00.001,n,73,1.44,1.08,1.8,11.1,64.5,1023.82,0,0,0,0,0.024414
2022/07/30 02:42:00.014,n,97,0.72,0.36,4.32,11.1,64.300004,1023.82,0,0,0,0,0.021782
2022/07/30 02:43:00.000,n,179,2.52,0.72,5.04,11.2,64.699996,1023.82,0,0,0,0,0.025253
2022/07/30 02:44:00.000,n,245,1.44,1.44,1.8,11.2,64.5,1023.82,0,0,0,0,0.022621
2022/07/30 02:45:00.000,n,180,2.52,0.72,3.24,11.1,64.4,1023.82,0,0,0,0,0.022621
2022/07/30 02:46:00.003,n,273,0.72,0.36,1.08,11.1,64.4,1023.82,0,0,0,0,0.026131
2022/07/30 02:47:00.000,n,271,2.16,2.16,2.88,11.1,64.5,1023.82,0,0,0,0,0.023499
2022/07/30 02:48:00.000,n,176,4.68,2.52,6.12,11.1,64.699996,1023.82,0,0,0,0,0.023499
2022/07/30 02:49:00.010,n,230,2.16,1.44,2.88,11.1,64.6,1023.82,0,0,0,0,0.023499
2022/07/30 02:50:00.007,n,324,1.08,0.72,3.96,11.1,64.9,1023.82,0,0,0,0,0.021782
2022/07/30 02:51:00.004,n,189,2.16,1.8,2.88,11.1,65.6,1023.82,0,0,0,0,0.020027
2022/07/30 02:52:00.001,n,154,2.16,0.36,3.96,11.1,65.1,1023.82,0,0,0,0,0.025253
2022/07/30 02:53:00.000,n,299,1.44,0.36,1.8,11.1,64.800004,1023.92,0,0,0,0,0.028725
2022/07/30 02:54:00.000,n,287,2.16,1.08,2.52,11.1,64.699996,1023.82,0,0,0,0,0.033112
2022/07/30 02:55:00.005,n,255,1.8,1.44,1.8,11.1,65,1023.82,0,0,0,0,0.032234
2022/07/30 02:56:00.002,n,297,0.72,0.36,0.72,11.1,65.199996,1023.82,0,0,0,0,0.032234
2022/07/30 02:57:00.000,n,263,3.6,0.36,4.32,11.1,65,1023.82,0,0,0,0,0.033112
2022/07/30 02:58:00.000,n,229,2.16,2.16,2.52,11.1,65,1023.82,0,0,0,0,0.033989
2022/07/30 02:59:00.009,n,279,1.8,1.44,2.52,11,65,1023.82,0,0,0,0,0.032234
2022/07/30 03:00:00.010,n,59,0.72,0.72,0.72,11,65.5,1023.82,0,0,0,0,0.033112
2022/07/30 03:01:00.000,n,182,2.16,1.8,2.16,11,65.699996,1023.82,0,0,0,0,0.033112
2022/07/30 03:02:00.000,n,296,3.96,3.6,4.68,11,65.9,1023.72,0,0,0,0,0.030518
2022/07/30 03:03:00.000,n,226,2.16,1.44,3.96,11,65.5,1023.72,0,0,0,0,0.033989
2022/07/30 03:04:00.000,n,268,1.8,1.08,2.16,11,65.5,1023.72,0,0,0,0,0.034866
2022/07/30 03:05:00.000,n,172,5.76,3.6,8.64,11,65.300004,1023.72,0,0,0,0,0.033989
2022/07/30 03:06:00.006,n,211,0.72,0.36,1.08,11,65.6,1023.72,0,0,0,0,0.032234
2022/07/30 03:07:00.004,n,200,1.08,0.36,2.88,11,66,1023.72,0,0,0,0,0.033989
2022/07/30 03:08:00.001,n,169,2.88,1.08,5.4,11.1,66.1,1023.72,0,0,0,0,0.031357
2022/07/30 03:09:00.014,n,277,1.08,1.08,1.44,11.1,65.9,1023.72,0,0,0,0,0.032234
2022/07/30 03:10:00.000,n,51,0.72,0.36,1.08,11.1,66.199996,1023.72,0,0,0,0,0.02964
2022/07/30 03:11:00.000,n,156,2.88,0.36,4.68,11.1,66.300004,1023.62,0,0,0,0,0.030518
2022/07/30 03:12:00.000,n,174,2.16,1.08,3.6,11,66.1,1023.62,0,0,0,0,0.02964
2022/07/30 03:13:00.002,n,94,1.08,0.36,1.44,11,66.300004,1023.62,0,0,0,0,0.031357
2022/07/30 03:14:00.000,n,134,1.44,0.72,2.16,11,66.300004,1023.62,0,0,0,0,0.032234
2022/07/30 03:15:00.000,n,110,1.8,0.72,5.04,11,66.300004,1023.62,0,0,0,0,0.033112
2022/07/30 03:16:00.010,n,141,1.8,0.72,2.88,11,66.5,1023.62,0,0,0,0,0.030518
2022/07/30 03:17:00.006,n,297,1.8,1.8,2.16,11,66.6,1023.62,0,0,0,0,0.032234
2022/07/30 03:18:00.005,n,272,3.24,2.16,3.96,11,66.300004,1023.62,0,0,0,0,0.032234
2022/07/30 03:19:00.000,n,167,3.24,2.16,4.68,11,66.300004,1023.62,0,0,0,0,0.02964
2022/07/30 03:20:00.000,n,306,1.08,0.36,1.08,11,66.4,1023.62,0,0,0,0,0.030518
2022/07/30 03:21:00.000,n,283,1.44,1.08,1.8,11,66.9,1023.62,0,0,0,0,0.02964
2022/07/30 03:22:00.000,n,275,3.6,2.88,3.6,11,66.4,1023.62,0,0,0,0,0.02964
2022/07/30 03:23:00.007,n,341,5.76,2.88,10.08,11,67.2,1023.62,0,0,0,0,0.032234
2022/07/30 03:24:00.004,n,241,5.4,3.96,6.12,11,66.5,1023.62,0,0,0,0,0.028725
2022/07/30 03:25:00.001,n,179,2.16,0.72,4.68,11,66.1,1023.72,0,0,0,0,0.033989
2022/07/30 03:26:00.014,n,228,3.24,0.72,4.32,11,66,1023.72,0,0,0,0,0.033112
2022/07/30 03:27:00.010,n,256,4.68,4.68,5.4,11,65.9,1023.72,0,0,0,0,0.030518
2022/07/30 03:28:00.000,n,199,2.88,1.8,6.48,10.9,65.9,1023.72,0,0,0,0,0.030518
2022/07/30 03:29:00.000,n,244,4.68,3.96,5.4,10.9,65.9,1023.82,0,0,0,0,0.032234
2022/07/30 03:30:00.002,n,274,2.52,2.52,2.88,10.9,66,1023.82,0,0,0,0,0.032234
2022/07/30 03:31:00.000,n,294,4.32,3.6,5.04,10.9,66.4,1023.82,0,0,0,0,0.031357
2022/07/30 03:32:00.000,n,245,3.6,1.44,4.68,10.9,66.1,1023.82,0,0,0,0,0.031357
2022/07/30 03:33:00.009,n,264,4.68,0.72,5.4,10.9,66,1023.82,0,0,0,0,0.034866
2022/07/30 03:34:00.005,n,206,2.88,2.52,3.24,10.9,66,1023.82,0,0,0,0,0.032234
2022/07/30 03:35:00.003,n,290,3.24,2.88,3.6,10.9,66.1,1023.82,0,0,0,0,0.031357
2022/07/30 03:36:00.000,n,264,5.4,1.8,6.12,10.9,66,1023.82,0,0,0,0,0.032234
2022/07/30 03:37:00.000,n,206,2.52,2.16,2.88,10.9,66.1,1023.82,0,0,0,0,0.028725
2022/07/30 03:38:00.000,n,213,3.24,2.16,4.32,10.9,66,1023.82,0,0,0,0,0.032234
2022/07/30 03:39:00.000,n,197,2.52,0.72,3.6,10.9,66.1,1023.82,0,0,0,0,0.030518
2022/07/30 03:40:00.005,n,244,3.96,2.52,4.68,10.9,65.9,1023.82,0,0,0,0,0.032234
2022/07/30 03:41:00.002,n,287,2.88,2.52,3.24,10.9,65.800004,1023.82,0,0,0,0,0.031357
2022/07/30 03:42:00.000,n,92,0.72,0.72,1.08,10.9,66,1023.82,0,0,0,0,0.033112
2022/07/30 03:43:00.012,n,306,1.8,1.08,2.16,10.9,66,1023.82,0,0,0,0,0.031357
2022/07/30 03:44:00.009,n,228,1.8,1.08,2.16,10.9,66,1023.82,0,0,0,0,0.031357
2022/07/30 03:45:00.006,n,214,0.72,0.36,4.68,10.9,66.300004,1023.82,0,0,0,0,0.027008
2022/07/30 03:46:00.000,n,283,1.44,1.08,2.16,10.9,66.6,1023.82,0,0,0,0,0.031357
2022/07/30 03:47:00.000,n,321,1.8,0.36,5.04,10.9,66.6,1023.82,0,0,0,0,0.031357
2022/07/30 03:48:00.000,n,323,3.6,2.88,4.32,10.9,66.5,1023.82,0,0,0,0,0.02964
2022/07/30 03:49:00.000,n,242,2.52,1.44,5.04,10.9,66.4,1023.82,0,0,0,0,0.033112
2022/07/30 03:50:00.007,n,255,1.08,0.36,3.96,10.9,66.4,1023.82,0,0,0,0,0.030518
2022/07/30 03:51:00.005,n,124,1.44,1.44,2.16,10.9,66.699996,1023.82,0,0,0,0,0.02964
2022/07/30 03:52:00.002,n,263,3.6,0.36,4.68,10.9,66.699996,1023.82,0,0,0,0,0.028725
2022/07/30 03:53:00.000,n,282,3.6,2.88,4.32,10.9,67.1,1023.82,0,0,0,0,0.024376
2022/07/30 03:54:00.011,n,294,2.52,1.44,2.88,10.9,66.9,1023.82,0,0,0,0,0.027885
2022/07/30 03:55:00.000,n,327,0.72,0.36,1.08,10.9,67,1023.82,0,0,0,0,0.027885
2022/07/30 03:56:00.000,n,253,2.88,0.72,3.6,10.9,67.4,1023.82,0,0,0,0,0.02964
2022/07/30 03:57:00.003,n,198,0.72,0.72,0.72,10.9,67.7,1023.82,0,0,0,0,0.023537
2022/07/30 03:58:00.000,n,186,2.16,1.08,4.32,10.9,67.7,1023.82,0,0,0,0,0.030518
2022/07/30 03:59:00.000,n,201,2.16,1.08,3.6,10.9,67.6,1023.82,0,0,0,0,0.027885
2022/07/30 04:00:00.000,n,159,3.96,1.8,5.76,10.8,67.6,1023.92,0,0,0,0,0.027885
2022/07/30 04:01:00.009,n,243,0.36,0.36,0.72,10.8,67.7,1023.92,0,0,0,0,0.027008
2022/07/30 04:02:00.006,n,165,2.52,0.72,5.4,10.8,68.1,1023.92,0,0,0,0,0.026131
2022/07/30 04:03:00.003,n,184,1.8,0.36,3.96,10.8,68,1023.92,0,0,0,0,0.027885
2022/07/30 04:04:00.003,n,298,3.6,3.24,3.96,10.8,68.4,1023.92,0,0,0,0,0.024376
2022/07/30 04:05:00.000,n,117,1.08,0.36,3.96,10.8,68.5,1023.82,0,0,0,0,0.023537
2022/07/30 04:06:00.000,n,318,1.8,1.08,2.88,10.8,68.6,1023.82,0,0,0,0,0.025253
2022/07/30 04:07:00.000,n,274,2.16,1.8,2.52,10.8,68.7,1023.82,0,0,0,0,0.025253
2022/07/30 04:08:00.006,n,196,2.16,1.8,3.24,10.8,68.6,1023.82,0,0,0,0,0.027885
2022/07/30 04:09:00.003,n,212,2.52,1.44,2.88,10.8,68.7,1023.82,0,0,0,0,0.025253
2022/07/30 04:10:00.001,n,251,4.32,2.52,6.48,10.8,68.9,1023.92,0,0,0,0,0.023537
2022/07/30 04:11:00.000,n,324,3.24,2.52,7.56,10.8,69.2,1023.92,0,0,0,0,0.024376
2022/07/30 04:12:00.011,n,287,3.24,3.24,3.6,10.8,69.2,1023.92,0,0,0,0,0.024376
2022/07/30 04:13:00.000,n,225,3.24,2.16,3.96,10.8,69.1,1023.92,0,0,0,0,0.025253
2022/07/30 04:14:00.000,n,264,3.24,1.08,3.96,10.8,69.2,1023.92,0,0,0,0,0.024376
2022/07/30 04:15:00.002,n,241,2.52,2.16,3.24,10.8,69.3,1023.92,0,0,0,0,0.026131
2022/07/30 04:16:00.000,n,295,1.8,1.08,3.6,10.8,69.3,1023.92,0,0,0,0,0.026131
2022/07/30 04:17:00.000,n,268,3.6,0.36,4.68,10.8,69.4,1023.92,0,0,0,0,0.025253
2022/07/30 04:18:00.009,n,279,5.4,1.44,6.84,10.8,69.5,1023.92,0,0,0,0,0.025253
2022/07/30 04:19:00.007,n,215,2.88,2.88,3.24,10.8,69.5,1023.92,0,0,0,0,0.022659
2022/07/30 04:20:00.005,n,174,1.44,0.72,2.88,10.7,69.5,1023.92,0,0,0,0,0.023537
2022/07/30 04:21:00.002,n,250,5.04,4.32,5.4,10.7,69.6,1023.92,0,0,0,0,0.026131
2022/07/30 04:22:00.000,n,256,2.16,1.8,2.52,10.7,69.5,1023.92,0,0,0,0,0.024376
2022/07/30 04:23:00.000,n,280,3.6,2.88,3.96,10.7,69.5,1023.92,0,0,0,0,0.021782
2022/07/30 04:24:00.000,n,252,5.04,1.08,5.4,10.7,69.4,1023.92,0,0,0,0,0.026131
2022/07/30 04:25:00.006,n,110,2.16,0.36,3.6,10.8,69.4,1023.92,0,0,0,0,0.021782
2022/07/30 04:26:00.004,n,142,1.44,0.36,4.32,10.8,69.3,1023.92,0,0,0,0,0.020905
2022/07/30 04:27:00.001,n,240,1.8,1.44,2.52,10.8,69.7,1023.92,0,0,0,0,0.026131
2022/07/30 04:28:00.000,n,174,2.52,1.8,2.88,10.8,69.3,1024.02,0,0,0,0,0.020027
2022/07/30 04:29:00.011,n,233,2.88,2.52,3.24,10.8,69.2,1024.02,0,0,0,0,0.020905
2022/07/30 04:30:00.009,n,280,3.96,3.6,4.32,10.8,69.3,1024.02,0,0,0,0,0.021782
2022/07/30 04:31:00.000,n,280,4.32,2.16,5.76,10.8,69.3,1024.02,0,0,0,0,0.021782
2022/07/30 04:32:00.003,n,279,3.96,3.6,4.32,10.8,69.2,1024.02,0,0,0,0,0.020027
2022/07/30 04:33:00.000,n,209,2.88,1.44,3.96,10.8,69.1,1024.02,0,0,0,0,0.021782
2022/07/30 04:34:00.000,n,114,2.16,0.72,3.96,10.8,69.2,1024.02,0,0,0,0,0.018311
2022/07/30 04:35:00.000,n,300,2.16,1.8,3.6,10.8,69.1,1024.02,0,0,0,0,0.022659
2022/07/30 04:36:00.000,n,196,3.24,2.88,3.6,10.8,69.1,1024.12,0,0,0,0,0.022659
2022/07/30 04:37:00.006,n,294,1.8,0.72,2.16,10.8,69,1024.12,0,0,0,0,0.021782
2022/07/30 04:38:00.002,n,310,2.52,1.44,3.96,10.8,69.1,1024.12,0,0,0,0,0.017433
2022/07/30 04:39:00.001,n,70,0.72,0.36,4.32,10.8,69.3,1024.12,0,0,0,0,0.017433
2022/07/30 04:40:00.000,n,189,2.16,1.44,3.6,10.8,69.1,1024.12,0,0,0,0,0.018311
2022/07/30 04:41:00.000,n,317,0.72,0.36,3.96,10.8,69,1024.12,0,0,0,0,0.022659
2022/07/30 04:42:00.000,n,315,1.44,1.08,2.88,10.8,69,1024.12,0,0,0,0,0.020905
2022/07/30 04:43:00.006,n,153,1.8,0.36,2.52,10.8,69.1,1024.12,0,0,0,0,0.021782
2022/07/30 04:44:00.003,n,214,3.96,2.52,7.56,10.8,69.1,1024.12,0,0,0,0,0.017433
2022/07/30 04:45:00.000,n,182,2.16,1.08,5.76,10.9,69.1,1024.12,0,0,0,0,0.020027
2022/07/30 04:46:00.000,n,8,4.32,3.6,4.68,10.9,69.4,1024.12,0,0,0,0,0.019188
2022/07/30 04:47:00.011,n,166,3.24,1.08,5.4,10.9,69.3,1024.12,0,0,0,0,0.020027
2022/07/30 04:48:00.008,n,264,3.96,3.6,4.68,10.9,69.4,1024.12,0,0,0,0,0.021782
2022/07/30 04:49:00.000,n,225,2.16,1.8,2.52,10.9,69.4,1024.22,0,0,0,0,0.020027
2022/07/30 04:50:00.002,n,199,2.52,1.44,2.88,10.9,69.4,1024.22,0,0,0,0,0.019188
2022/07/30 04:51:00.000,n,259,3.6,1.44,4.68,10.9,69.5,1024.12,0,0,0,0,0.018311
2022/07/30 04:52:00.000,n,276,2.16,1.44,3.24,10.9,69.6,1024.12,0,0,0,0,0.018311
2022/07/30 04:53:00.000,n,281,2.16,1.44,2.52,10.9,69.6,1024.12,0,0,0,0,0.020905